Location: Observatory
(52.1446°N, 0.4624°W)
Time: 17:11:33
(UTC+00:00)

ISS - Pass Details

Date: 25 November 2021
Orbit: 417 x 422 km, 51.6° (Epoch: 06 December)

Event Time Altitude Azimuth Distance (km) Brightness Sun altitude
Rises 17:34:39 0° 242° (WSW) 2,372 1.8 -14.2°
Reaches altitude 10° 17:36:46 10° 237° (WSW) 1,509 0.3 -14.5°
Maximum altitude 17:40:04 51° 160° (SSE) 539 -3.3 -15.0°
Enters shadow 17:41:21 31° 101° (E) 768 -2.9 -15.2°
